TimeCDT,TemperatureF,Dew PointF,Humidity,Sea Level PressureIn,VisibilityMPH,Wind Direction,Wind SpeedMPH,Gust SpeedMPH,PrecipitationIn,Events,Conditions,WindDirDegrees,DateUTC
12:53 AM,66.0,63.0,90,30.04,10.0,Calm,Calm,-,N/A,,Clear,0,2013-05-09 05:53:00
1:53 AM,66.9,63.0,87,30.02,10.0,Variable,3.5,-,N/A,,Clear,0,2013-05-09 06:53:00
2:53 AM,66.9,64.0,90,30.02,10.0,SSE,3.5,-,N/A,,Clear,160,2013-05-09 07:53:00
3:53 AM,66.0,63.0,90,30.03,10.0,South,3.5,-,N/A,,Clear,170,2013-05-09 08:53:00
4:53 AM,66.0,64.0,93,30.03,7.0,Calm,Calm,-,N/A,,Clear,0,2013-05-09 09:53:00
5:53 AM,63.0,62.1,97,30.05,3.0,Calm,Calm,-,N/A,,Clear,0,2013-05-09 10:53:00
6:18 AM,62.6,62.6,100,30.05,2.5,Calm,Calm,-,N/A,,Scattered Clouds,0,2013-05-09 11:18:00
6:28 AM,62.6,60.8,94,30.05,1.5,Calm,Calm,-,N/A,,Scattered Clouds,0,2013-05-09 11:28:00
6:40 AM,62.6,60.8,94,30.05,2.0,Calm,Calm,-,N/A,,Partly Cloudy,0,2013-05-09 11:40:00
6:53 AM,63.0,61.0,93,30.06,2.5,Calm,Calm,-,N/A,,Clear,0,2013-05-09 11:53:00
7:04 AM,64.4,62.6,94,30.06,4.0,Calm,Calm,-,N/A,,Clear,0,2013-05-09 12:04:00
7:53 AM,68.0,64.9,90,30.07,10.0,Calm,Calm,-,N/A,,Clear,0,2013-05-09 12:53:00
8:53 AM,73.0,66.9,81,30.08,10.0,SSE,8.1,-,N/A,,Clear,160,2013-05-09 13:53:00
9:33 AM,73.4,66.2,78,30.08,10.0,SSE,10.4,-,N/A,,Mostly Cloudy,160,2013-05-09 14:33:00
9:53 AM,77.0,66.0,69,30.08,10.0,South,11.5,-,N/A,,Mostly Cloudy,170,2013-05-09 14:53:00
10:53 AM,77.0,64.9,66,30.09,10.0,SSE,6.9,-,N/A,,Overcast,150,2013-05-09 15:53:00
11:38 AM,78.8,66.2,65,30.10,10.0,South,6.9,16.1,N/A,,Mostly Cloudy,180,2013-05-09 16:38:00
11:51 AM,78.8,64.4,61,30.10,10.0,South,8.1,-,N/A,,Mostly Cloudy,170,2013-05-09 16:51:00
11:53 AM,78.8,66.2,65,30.10,10.0,South,10.4,-,N/A,,Mostly Cloudy,170,2013-05-09 16:53:00
12:18 PM,78.8,64.4,61,30.09,10.0,South,10.4,-,N/A,,Mostly Cloudy,180,2013-05-09 17:18:00
12:53 PM,78.1,64.9,64,30.09,10.0,South,10.4,-,N/A,,Overcast,170,2013-05-09 17:53:00
1:53 PM,77.0,66.0,69,30.08,10.0,South,10.4,17.3,N/A,,Overcast,190,2013-05-09 18:53:00
2:53 PM,75.2,66.2,73,30.06,10.0,South,8.1,18.4,N/A,,Overcast,170,2013-05-09 19:53:00
3:19 PM,75.2,66.2,73,30.05,10.0,South,9.2,-,N/A,,Overcast,170,2013-05-09 20:19:00
3:27 PM,75.2,66.2,73,30.05,10.0,SSE,6.9,-,N/A,,Overcast,160,2013-05-09 20:27:00
3:53 PM,75.9,66.9,74,30.03,10.0,SSE,4.6,-,N/A,,Overcast,160,2013-05-09 20:53:00
4:40 PM,78.8,66.2,65,30.02,10.0,South,9.2,-,N/A,,Overcast,170,2013-05-09 21:40:00
4:53 PM,78.1,66.9,68,30.02,10.0,South,9.2,-,N/A,,Overcast,170,2013-05-09 21:53:00
5:53 PM,78.1,66.9,68,30.00,10.0,South,6.9,-,N/A,,Scattered Clouds,170,2013-05-09 22:53:00
6:53 PM,77.0,66.9,71,29.99,10.0,SSE,8.1,-,N/A,,Overcast,150,2013-05-09 23:53:00
7:53 PM,75.0,66.9,76,29.99,10.0,SSE,3.5,-,N/A,,Clear,150,2013-05-10 00:53:00
8:53 PM,73.9,68.0,82,29.99,10.0,Variable,4.6,-,N/A,,Mostly Cloudy,0,2013-05-10 01:53:00
9:09 PM,73.4,68.0,83,29.99,10.0,Variable,4.6,-,N/A,,Mostly Cloudy,0,2013-05-10 02:09:00
9:53 PM,75.0,68.0,79,29.99,10.0,SE,4.6,-,N/A,,Overcast,130,2013-05-10 02:53:00
10:53 PM,73.9,68.0,82,29.99,10.0,Variable,6.9,-,N/A,,Mostly Cloudy,0,2013-05-10 03:53:00
11:53 PM,73.4,69.8,88,29.98,10.0,Variable,4.6,-,N/A,,Overcast,0,2013-05-10 04:53:00